Regional Weather Roundup
Issued by NWS

Home | Current Version | Previous Version | Graphics & Text | Print | Product List | Glossary On
Versions: 1 2 3 4 5 6 7 8 9 10 11 12 13 14 15 16 17 18 19 20 21 22 23 24 25 26 27 28 29 30 31 32 33 34 35 36 37 38 39 40 41 42 43 44 45 46 47 48 49 50
684
ASUS45 KCYS 221210
RWRWY

WYOMING REGIONAL WEATHER ROUNDUP
NATIONAL WEATHER SERVICE CHEYENNE WY
600 AM MDT THU JUN 22 2017

NOTE:  "FAIR" INDICATES FEW OR NO CLOUDS BELOW 12,000 FEET
WITH NO SIGNIFICANT WEATHER AND/OR OBSTRUCTIONS TO VISIBILITY.

WYZ001-221300-
YELLOWSTONE NATIONAL PARK

CITY           SKY/WX    TMP DP  RH WIND       PRES   REMARKS
LK YELLOWSTONE   N/A     37  29  72 NW5       30.20R WCI  33
6HR MIN TEMP:  36; 6HR MAX TEMP:  53;

W YELLOWSTONE  NOT AVBL

$$
WYZ002>013-054>058-071-098>099-221300-
NORTHERN WYOMING

CITY           SKY/WX    TMP DP  RH WIND       PRES   REMARKS
JACKSON        FAIR      43  39  87 NE3       30.10R
CODY           FAIR      53  33  46 NW7       30.08R
GREYBULL       FAIR      63  32  31 N15G24    29.94R
6HR MIN TEMP:  63; 6HR MAX TEMP:  78;

WORLAND        FAIR      59  32  36 NW10      29.97R
6HR MIN TEMP:  58; 6HR MAX TEMP:  72;

SHERIDAN       FAIR      53  42  66 W10       30.05R
6HR MIN TEMP:  53; 6HR MAX TEMP:  66; 6HR PCP: TRACE;

BUFFALO        FAIR      54  37  52 NW24G39   30.03R
6HR MIN TEMP:  54; 6HR MAX TEMP:  67;

GILLETTE       FAIR      57  40  52 N16       29.96R
6HR MIN TEMP:  55; 6HR MAX TEMP:  65;

NEWCASTLE      FAIR      59  45  58 NW8       29.87R

$$
WYZ014>020-022>026-101>103-221300-
CENTRAL WYOMING

CITY           SKY/WX    TMP DP  RH WIND       PRES   REMARKS
BIG PINEY      FAIR      44  31  60 NW7       30.11R
6HR MIN TEMP:  42; 6HR MAX TEMP:  60;

PINEDALE       FAIR      43  39  87 NW7       30.12R
DUBOIS         FAIR      46  32  57 NW10      30.09R
LANDER         FAIR      57  35  43 SE6       30.05R
6HR MIN TEMP:  57; 6HR MAX TEMP:  71;

RIVERTON       FAIR      59  27  29 N14       30.01R
6HR MIN TEMP:  59; 6HR MAX TEMP:  71;

CASPER         FAIR      53  46  77 S6        30.00R
6HR MIN TEMP:  52; 6HR MAX TEMP:  64;

DOUGLAS        FAIR      58  47  66 NW13      29.97R
6HR MIN TEMP:  57; 6HR MAX TEMP:  65;


$$
WYZ021-027>030-104>119-221300-
SOUTHERN WYOMING

CITY           SKY/WX    TMP DP  RH WIND       PRES   REMARKS
EVANSTON       FAIR      59  40  49 CALM      30.14R
6HR MIN TEMP:  54; 6HR MAX TEMP:  68;

KEMMERER         N/A     50  32  50 W3        30.14R
FORT BRIDGER   FAIR      55  42  62 W9        30.14S
ROCK SPRINGS   FAIR      56  42  59 W9        30.08R
6HR MIN TEMP:  55; 6HR MAX TEMP:  67;

DIXON          FAIR      50  40  68 E7        30.10R
RAWLINS        FAIR      60  40  47 NW7       30.06R
6HR MIN TEMP:  60; 6HR MAX TEMP:  67;

SARATOGA       FAIR      55  39  54 CALM      30.09R
LARAMIE        FAIR      57  37  47 N10       30.07R
6HR MIN TEMP:  54; 6HR MAX TEMP:  64;

CHEYENNE       FAIR      69  37  30 W13       29.97R
6HR MIN TEMP:  64; 6HR MAX TEMP:  74;

TORRINGTON     FAIR      62  52  69 NW12      29.83R
6HR MIN TEMP:  59; 6HR MAX TEMP:  71;

PINE BLUFFS    FAIR      61  39  44 W9        29.89R

$$




USA.gov is the U.S. government's official web portal to all federal, state and local government web resources and services.